Location: Linz
(48.3300°N, 14.3000°E)
Time: 00:09:45
(UTC+01:00)

YUBILEINY - Pass Details

Date: 21 February 2019
Orbit: 1479 x 1508 km, 82.5° (Epoch: 20 March)

Event Time Altitude Azimuth Distance (km) Brightness Sun altitude
Rises 06:20:33 0° 223° (SW) 4,590 ? -7.3°
Reaches altitude 10° 06:23:48 10° 232° (SW) 3,614 ? -6.7°
Maximum altitude 06:31:29 34° 295° (WNW) 2,246 ? -5.5°
Drops below altitude 10° 06:39:17 10° 359° (N) 3,639 ? -4.2°
Sets 06:42:36 0° 8° (N) 4,626 ? -3.7°
